Weather Roundup
Issued by NWS Chicago, IL

Home | Current Version | Previous Version | Graphics & Text | Print | Product List | Glossary On
Versions: 1 2 3 4 5 6 7 8 9 10 11 12 13 14 15 16 17 18 19 20 21 22 23 24 25 26 27 28 29 30 31 32 33 34 35 36 37 38 39 40 41 42 43 44 45 46 47 48 49 50
000
NZUS59 KLOT 281006
HRRLOT

CHICAGO AREA WEATHER ROUNDUP
NATIONAL WEATHER SERVICE CHICAGO/ROMEOVILLE IL
500 AM CDT MON JUL 28 2014

NOTE: "FAIR" INDICATES FEW OR NO CLOUDS BELOW 12,000 FEET WITH NO
SIGNIFICANT WEATHER AND/OR OBSTRUCTIONS TO VISIBILITY.

* THESE STATIONS ARE NOT UNDER NWS QUALITY CONTROL. THEY ALSO MAY NOT
  REPORT WEATHER SUCH AS PRECIPITATION OR FOG.

ILZ005-006-012>014-019>023-281100-
NORTHEAST ILLINOIS

CITY           SKY/WX    TMP DP  RH WIND       PRES   REMARKS
OHARE          PTCLDY    61  48  62 N10       29.97R
MIDWAY         PTCLDY    63  52  67 NW13      29.97R
AURORA         CLEAR     57  53  86 NW8       30.00R
LANSING*       CLEAR     62  50  65 N7G17     29.96R
JOLIET*        CLEAR     60  50  69 N7        29.99R
WAUKEGAN       CLEAR     57  49  74 NW8       29.97R
DUPAGE AIRPORT CLEAR     58  53  84 NW9       29.98R
WHEELING       CLEAR     61  50  67 N12       29.99R
KANKAKEE*      CLEAR     60  53  76 NW6       29.97R
MORRIS*        CLEAR     58  56  92 CALM      29.99R
LEWIS AIRPORT* CLEAR     59  50  72 N9        29.98R
NORTHERLY IS     N/A     62  51  67 NW9         N/A
$$

WIZ051-052-058>065-066-070>072-281100-
SOUTHEAST WISCONSIN

CITY           SKY/WX    TMP DP  RH WIND       PRES   REMARKS
MILWAUKEE      CLEAR     57  48  72 NW9       29.99R
KENOSHA*       CLEAR     56  50  80 NW8       29.99R
RACINE*        CLEAR     58  49  72 NW10      30.00R
BURLINGTON     CLEAR     53  51  94 NW8       30.00R
WAUKESHA       CLEAR     52  46  82 NW7       30.02R
WEST BEND      CLEAR     52  45  76 NW10      30.01R
$$

INZ001>003-010>013-019-020-281100-
NORTHWEST INDIANA

CITY           SKY/WX    TMP DP  RH WIND       PRES   REMARKS
GARY*          PTCLDY    63  54  72 N23       29.95R
MICHIGAN CITY* NOT AVBL
RENSSELAER*    NOT AVBL
VALPARAISO     CLOUDY    61  54  77 N9G18     29.94R
$$

LMZ740>746-281100-
SOUTHERN LAKE MICHIGAN

STATION/POSITION TIME  SKY/WX   TEMP WIND        PRES    VSBY
                                AIR  DIR/SP/G
                 (UTC)          (F)  (DEG/KT/KT) (MB)    (MI)
HARRISON CRIB    1000            62  330/ 22/ 26   N/A
BURNHAM HARBOR   1000            62  320/  9/ 19   N/A
CALUMET HARBOR   1000            62  320/ 10/ 18 1013.2R
BURNS HARBOR     NOT AVBL
MICHIGAN CITY    1000            62  340/ 25/ 30   N/A
$$

ABBREVIATIONS USED IN REMARKS
   TC - TEMPERATURE IN CELSIUS
  WCI - WIND CHILL INDEX
   HX - HEAT INDEX
  VSB - VISIBILITY
$$



USA.gov is the U.S. government's official web portal to all federal, state and local government web resources and services.